Weather History for Waupaca, WI

Change the Weather History Date:

Tuesday, September 3, 2013

  Actual Average Record
Temperature  
Mean Temperature 61 °F -  
Max Temperature 79 °F 77 °F 94 °F (1960)
Min Temperature 43 °F 53 °F 38 °F (1974)
Degree Days  
Heating Degree Days 4    
Growing Degree Days 11 (Base 50)    
Moisture  
Dew Point 47 °F    
Average Humidity 63    
Maximum Humidity 95    
Minimum Humidity 28    
Precipitation  
Precipitation 0.00 in - - ()
Sea Level Pressure  
Sea Level Pressure 30.04 in    
Wind  
Wind Speed 3 mph (West)    
Max Wind Speed 13 mph    
Max Gust Speed 16 mph    
Visibility 10 miles    
Events      
Averages and records for this station are not official NWS values.
T = Trace of Precipitation, MM = Missing Value Source: NWS Daily Summary

Daily Weather History Graph

Daily Weather History Graph

Search for Another Location

Airport:

Trip Planner

Search our weather history database for the weather conditions in past years. The results will help you decide how hot, cold, wet, or windy it might be!

Date:

Astronomy

Sep. 03, 2013 Rise Set
Actual Time 6:21 AM CDT 7:28 PM CDT
Civil Twilight 5:51 AM CDT 7:57 PM CDT
Nautical Twilight 5:16 AM CDT 8:33 PM CDT
Astronomical Twilight 4:38 AM CDT 9:10 PM CDT
Moon 4:33 AM CDT (9/3) 6:16 PM CDT (9/3)
Length of Visible Light 14h 06m
Length of Day
13h 06m
Waning Crescent, 3% of the Moon is Illuminated
Sep 3
Waning Crescent
Sep 5
New
Sep 12
First Quarter
Sep 19
Full
Sep 26
Last Quarter

Hourly Weather History & Observations

Time (CDT) Temp. Dew Point Humidity Pressure Visibility Wind Dir Wind Speed Gust Speed Precip Events Conditions
12:15 AM 52.7 °F 48.7 °F 86% 30.03 in 10.0 mi NNW 3.5 mph - N/A   Clear
12:35 AM 51.3 °F 48.4 °F 90% 30.04 in 10.0 mi North 4.6 mph - N/A   Clear
12:55 AM 50.9 °F 48.2 °F 90% 30.03 in 10.0 mi North 3.5 mph - N/A   Clear
1:15 AM 50.7 °F 48.2 °F 91% 30.04 in 10.0 mi NNW 4.6 mph - N/A   Clear
1:35 AM 50.4 °F 47.8 °F 91% 30.04 in 10.0 mi Calm Calm - N/A   Clear
1:55 AM 50.9 °F 48.4 °F 91% 30.04 in 10.0 mi Calm Calm - N/A   Clear
2:15 AM 50.2 °F 48.2 °F 93% 30.05 in 10.0 mi NNW 3.5 mph - N/A   Clear
2:35 AM 50.4 °F 48.4 °F 93% 30.05 in 10.0 mi Calm Calm - N/A   Clear
2:55 AM 49.3 °F 47.3 °F 93% 30.05 in 4.0 mi Calm Calm - N/A   Clear
3:15 AM 48.4 °F 46.6 °F 93% 30.05 in 2.0 mi Calm Calm - N/A   Clear
3:35 AM 46.9 °F 45.0 °F 93% 30.05 in 10.0 mi Calm Calm - N/A   Clear
3:55 AM 48.0 °F 46.2 °F 93% 30.06 in 10.0 mi Calm Calm - N/A   Clear
4:15 AM 48.0 °F 46.2 °F 93% 30.06 in 7.0 mi Calm Calm - N/A   Clear
4:35 AM 44.8 °F 42.8 °F 93% 30.05 in 2.5 mi Calm Calm - N/A   Clear
4:55 AM 45.7 °F 43.9 °F 93% 30.05 in 10.0 mi Calm Calm - N/A   Clear
5:15 AM 44.4 °F 42.6 °F 93% 30.05 in 10.0 mi Calm Calm - N/A   Clear
5:35 AM 43.7 °F 41.9 °F 93% 30.05 in 10.0 mi Calm Calm - N/A   Clear
5:55 AM 44.4 °F 42.6 °F 93% 30.06 in 10.0 mi Calm Calm - N/A   Clear
6:15 AM 45.5 °F 43.9 °F 94% 30.07 in 10.0 mi Calm Calm - N/A   Clear
6:35 AM 45.0 °F 43.2 °F 93% 30.07 in 10.0 mi Calm Calm - N/A   Clear
6:55 AM 45.0 °F 43.2 °F 93% 30.08 in 10.0 mi Calm Calm - N/A   Clear
7:15 AM 46.6 °F 45.0 °F 94% 30.09 in 10.0 mi Calm Calm - N/A   Clear
7:35 AM 50.2 °F 48.7 °F 95% 30.09 in 10.0 mi Calm Calm - N/A   Clear
7:55 AM 52.0 °F 50.4 °F 94% 30.10 in 10.0 mi West 3.5 mph - N/A   Clear
8:15 AM 54.5 °F 51.6 °F 90% 30.09 in 10.0 mi Calm Calm - N/A   Clear
8:35 AM 56.3 °F 50.7 °F 82% 30.10 in 10.0 mi Calm Calm - N/A   Clear
8:55 AM 58.3 °F 50.2 °F 74% 30.10 in 10.0 mi Calm Calm - N/A   Clear
9:15 AM 60.6 °F 50.5 °F 69% 30.10 in 10.0 mi West 3.5 mph - N/A   Clear
9:35 AM 63.0 °F 50.2 °F 63% 30.10 in 10.0 mi SW 4.6 mph - N/A   Clear
9:55 AM 64.9 °F 48.7 °F 56% 30.10 in 10.0 mi WSW 4.6 mph - N/A   Clear
10:15 AM 65.7 °F 47.3 °F 51% 30.10 in 10.0 mi West 4.6 mph - N/A   Clear
10:35 AM 67.5 °F 48.7 °F 51% 30.10 in 10.0 mi WSW 6.9 mph - N/A   Clear
10:55 AM 67.5 °F 47.8 °F 49% 30.09 in 10.0 mi WSW 5.8 mph - N/A   Clear
11:15 AM 68.4 °F 45.9 °F 44% 30.09 in 10.0 mi WNW 4.6 mph - N/A   Clear
11:35 AM 69.8 °F 45.7 °F 42% 30.09 in 10.0 mi West 5.8 mph - N/A   Clear
11:55 AM 70.9 °F 45.9 °F 41% 30.09 in 10.0 mi WNW 5.8 mph - N/A   Clear
12:15 PM 71.2 °F 45.5 °F 40% 30.08 in 10.0 mi Calm Calm - N/A   Clear
12:35 PM 73.0 °F 44.8 °F 36% 30.06 in 10.0 mi WSW 6.9 mph - N/A   Clear
12:55 PM 73.9 °F 44.8 °F 35% 30.06 in 10.0 mi West 4.6 mph - N/A   Clear
1:15 PM 74.5 °F 46.2 °F 37% 30.05 in 10.0 mi SSW 6.9 mph - N/A   Clear
1:35 PM 75.0 °F 45.5 °F 35% 30.05 in 10.0 mi NW 6.9 mph - N/A   Clear
1:55 PM 76.3 °F 43.9 °F 31% 30.04 in 10.0 mi WSW 6.9 mph - N/A   Clear
2:15 PM 76.8 °F 45.7 °F 33% 30.03 in 10.0 mi WSW 9.2 mph - N/A   Clear
2:35 PM 77.2 °F 45.1 °F 32% 30.03 in 10.0 mi West 6.9 mph - N/A   Clear
2:55 PM 77.9 °F 44.2 °F 30% 30.02 in 10.0 mi West 6.9 mph - N/A   Clear
3:15 PM 77.5 °F 44.1 °F 30% 30.01 in 10.0 mi WSW 10.4 mph - N/A   Clear
3:35 PM 78.8 °F 43.9 °F 29% 30.01 in 10.0 mi SW 12.7 mph 16.1 mph N/A   Clear
3:55 PM 79.0 °F 44.6 °F 30% 30.00 in 10.0 mi WSW 8.1 mph 11.5 mph N/A   Clear
4:15 PM 78.1 °F 43.3 °F 29% 30.00 in 10.0 mi SW 5.8 mph - N/A   Clear
4:35 PM 78.3 °F 43.5 °F 29% 30.00 in 10.0 mi SW 9.2 mph - N/A   Clear
4:55 PM 78.3 °F 42.8 °F 28% 30.00 in 10.0 mi West 8.1 mph - N/A   Clear
5:15 PM 78.3 °F 43.7 °F 29% 30.00 in 10.0 mi West 8.1 mph - N/A   Clear
5:35 PM 78.1 °F 43.0 °F 29% 30.00 in 10.0 mi WSW 10.4 mph - N/A   Clear
5:55 PM 78.1 °F 43.9 °F 30% 29.99 in 10.0 mi West 6.9 mph - N/A   Clear
6:15 PM 77.0 °F 44.8 °F 32% 29.99 in 10.0 mi WSW 9.2 mph - N/A   Clear
6:35 PM 75.4 °F 46.0 °F 35% 29.99 in 10.0 mi WSW 5.8 mph - N/A   Clear
6:55 PM 73.6 °F 47.5 °F 39% 29.99 in 10.0 mi Calm Calm - N/A   Clear
7:15 PM 71.2 °F 47.7 °F 43% 29.99 in 10.0 mi SW 4.6 mph - N/A   Clear
7:35 PM 69.3 °F 48.2 °F 47% 29.99 in 10.0 mi Calm Calm - N/A   Clear
7:55 PM 67.5 °F 48.9 °F 51% 30.00 in 10.0 mi Calm Calm - N/A   Clear
8:15 PM 64.6 °F 49.3 °F 58% 30.00 in 10.0 mi SW 3.5 mph - N/A   Clear
8:35 PM 64.6 °F 49.6 °F 58% 30.01 in 10.0 mi SW 4.6 mph - N/A   Clear
8:55 PM 64.0 °F 49.3 °F 59% 30.01 in 10.0 mi Calm Calm - N/A   Clear
9:15 PM 64.0 °F 50.0 °F 60% 30.01 in 10.0 mi WSW 3.5 mph - N/A   Clear
9:35 PM 62.8 °F 50.2 °F 63% 30.01 in 10.0 mi Calm Calm - N/A   Clear
9:55 PM 62.2 °F 50.0 °F 64% 30.01 in 10.0 mi West 4.6 mph - N/A   Clear
10:15 PM 60.6 °F 50.0 °F 68% 30.02 in 10.0 mi SW 3.5 mph - N/A   Clear
10:35 PM 60.6 °F 50.0 °F 68% 30.01 in 10.0 mi Calm Calm - N/A   Clear
10:55 PM 60.1 °F 50.0 °F 69% 30.01 in 10.0 mi Calm Calm - N/A   Clear
11:15 PM 56.7 °F 49.5 °F 77% 30.02 in 10.0 mi Calm Calm - N/A   Clear
11:35 PM 56.7 °F 50.2 °F 79% 30.01 in 10.0 mi Calm Calm - N/A   Clear
11:55 PM 55.4 °F 49.5 °F 80% 30.02 in 10.0 mi Calm Calm - N/A   Clear